Tracking 21092 objects as of 14-Aug-2020
HD Live streaming from Space Station
objects crossing your sky now
Track the most recent launched group of Starlink satellites

COSMOS 1437

Track COSMOS 1437 now!
10-day predictions
COSMOS 1437 is classified as:


NORAD ID: 13770
Int'l Code: 1983-003A
Perigee: 375.7 km
Apogee: 381.9 km
Inclination: 81.2 °
Period: 92.0 minutes
Semi major axis: 6749 km
RCS: 7.8902 m2 (large)
Launch date: January 20, 1983
Source: Commonwealth of Independent States (former USSR) (CIS)
Launch site: PLESETSK MISSILE AND SPACE COMPLEX (PKMTR)
aabbcc
Your satellite tracking list
Your tracking list is empty




NASA's NSSDC Master Catalog

Two Line Element Set (TLE):
1 13770U 83003A   20227.52809019 +.00007338 +00000-0 +72850-4 0  9996
2 13770 081.1588 156.3059 0004573 089.7436 270.4343 15.65544683066019
Source of the keplerian elements: AFSPC